TimeCDT,TemperatureF,Dew PointF,Humidity,Sea Level PressureIn,VisibilityMPH,Wind Direction,Wind SpeedMPH,Gust SpeedMPH,PrecipitationIn,Events,Conditions,WindDirDegrees,DateUTC
12:15 AM,51.1,46.6,85,30.07,10.0,NW,3.5,-,N/A,,Clear,320,2013-05-07 05:15:00
12:35 AM,48.6,45.5,89,30.07,10.0,North,4.6,-,N/A,,Clear,360,2013-05-07 05:35:00
12:55 AM,49.8,45.7,86,30.07,10.0,North,3.5,-,N/A,,Clear,360,2013-05-07 05:55:00
1:15 AM,48.6,45.1,88,30.07,10.0,NNW,3.5,-,N/A,,Clear,330,2013-05-07 06:15:00
1:35 AM,48.9,45.0,86,30.07,10.0,Calm,Calm,-,N/A,,Clear,0,2013-05-07 06:35:00
1:55 AM,48.2,44.8,88,30.06,10.0,Calm,Calm,-,N/A,,Clear,0,2013-05-07 06:55:00
2:15 AM,48.2,44.6,87,30.06,10.0,Calm,Calm,-,N/A,,Clear,0,2013-05-07 07:15:00
2:35 AM,48.2,44.6,87,30.05,10.0,Calm,Calm,-,N/A,,Clear,0,2013-05-07 07:35:00
2:55 AM,48.2,44.6,87,30.04,10.0,Calm,Calm,-,N/A,,Clear,0,2013-05-07 07:55:00
3:15 AM,46.4,43.7,90,30.04,10.0,Calm,Calm,-,N/A,,Clear,0,2013-05-07 08:15:00
3:35 AM,47.3,44.1,88,30.04,10.0,NNW,3.5,-,N/A,,Clear,340,2013-05-07 08:35:00
3:55 AM,45.7,43.3,92,30.05,10.0,Calm,Calm,-,N/A,,Clear,0,2013-05-07 08:55:00
4:15 AM,46.4,43.5,90,30.05,10.0,Calm,Calm,-,N/A,,Clear,0,2013-05-07 09:15:00
4:35 AM,45.5,43.2,92,30.06,10.0,Calm,Calm,-,N/A,,Clear,0,2013-05-07 09:35:00
4:55 AM,45.0,42.6,91,30.05,10.0,Calm,Calm,-,N/A,,Clear,0,2013-05-07 09:55:00
5:15 AM,46.4,43.5,90,30.05,10.0,Calm,Calm,-,N/A,,Clear,0,2013-05-07 10:15:00
5:35 AM,45.1,43.0,92,30.05,10.0,Calm,Calm,-,N/A,,Clear,0,2013-05-07 10:35:00
5:55 AM,44.6,42.4,92,30.07,10.0,Calm,Calm,-,N/A,,Clear,0,2013-05-07 10:55:00
6:15 AM,45.0,42.6,91,30.07,10.0,Calm,Calm,-,N/A,,Clear,0,2013-05-07 11:15:00
6:35 AM,45.1,43.0,92,30.07,10.0,Calm,Calm,-,N/A,,Clear,0,2013-05-07 11:35:00
6:55 AM,46.0,43.7,92,30.08,10.0,Calm,Calm,-,N/A,,Clear,0,2013-05-07 11:55:00
7:15 AM,45.7,43.5,92,30.08,10.0,Calm,Calm,-,N/A,,Clear,0,2013-05-07 12:15:00
7:35 AM,48.2,45.1,89,30.08,10.0,Calm,Calm,-,N/A,,Clear,0,2013-05-07 12:35:00
7:55 AM,50.2,47.1,89,30.09,10.0,Calm,Calm,-,N/A,,Clear,0,2013-05-07 12:55:00
8:15 AM,53.6,48.2,82,30.09,10.0,Calm,Calm,-,N/A,,Clear,0,2013-05-07 13:15:00
8:35 AM,56.5,49.8,78,30.09,10.0,Calm,Calm,-,N/A,,Clear,0,2013-05-07 13:35:00
8:55 AM,59.4,50.9,74,30.09,10.0,Calm,Calm,-,N/A,,Clear,0,2013-05-07 13:55:00
9:15 AM,63.0,51.6,66,30.09,10.0,Calm,Calm,-,N/A,,Clear,0,2013-05-07 14:15:00
9:35 AM,65.8,52.0,61,30.10,10.0,Calm,Calm,-,N/A,,Clear,0,2013-05-07 14:35:00
9:55 AM,68.0,52.2,57,30.09,10.0,South,8.1,-,N/A,,Clear,190,2013-05-07 14:55:00
10:15 AM,69.4,51.8,53,30.09,10.0,South,6.9,-,N/A,,Clear,170,2013-05-07 15:15:00
10:35 AM,70.7,50.7,49,30.09,10.0,SSE,9.2,-,N/A,,Clear,150,2013-05-07 15:35:00
10:55 AM,71.1,51.4,50,30.09,10.0,South,6.9,-,N/A,,Clear,190,2013-05-07 15:55:00
11:15 AM,72.9,49.6,44,30.08,10.0,SSE,8.1,-,N/A,,Clear,160,2013-05-07 16:15:00
11:35 AM,73.8,50.4,44,30.08,10.0,SE,8.1,-,N/A,,Clear,140,2013-05-07 16:35:00
11:55 AM,74.5,48.6,40,30.08,10.0,SE,10.4,16.1,N/A,,Clear,140,2013-05-07 16:55:00
12:15 PM,76.1,50.4,40,30.08,10.0,SSE,12.7,16.1,N/A,,Clear,160,2013-05-07 17:15:00
12:35 PM,76.5,46.9,35,30.07,10.0,South,8.1,18.4,N/A,,Clear,180,2013-05-07 17:35:00
12:55 PM,76.8,47.5,35,30.06,10.0,South,9.2,-,N/A,,Clear,170,2013-05-07 17:55:00
1:15 PM,78.3,47.1,33,30.06,10.0,SSE,10.4,17.3,N/A,,Clear,150,2013-05-07 18:15:00
1:35 PM,78.6,47.3,33,30.05,10.0,SE,9.2,17.3,N/A,,Clear,140,2013-05-07 18:35:00
1:55 PM,78.6,45.7,31,30.04,10.0,South,10.4,-,N/A,,Clear,170,2013-05-07 18:55:00
2:15 PM,79.5,46.4,31,30.04,10.0,South,11.5,-,N/A,,Clear,190,2013-05-07 19:15:00
2:35 PM,79.5,46.4,31,30.03,10.0,SSE,8.1,16.1,N/A,,Clear,160,2013-05-07 19:35:00
2:55 PM,80.1,45.9,30,30.02,10.0,South,10.4,18.4,N/A,,Clear,180,2013-05-07 19:55:00
3:15 PM,80.1,45.9,30,30.02,10.0,South,12.7,16.1,N/A,,Clear,190,2013-05-07 20:15:00
3:35 PM,79.7,46.2,31,30.02,10.0,SSE,10.4,24.2,N/A,,Clear,160,2013-05-07 20:35:00
3:55 PM,80.6,46.4,30,29.99,10.0,SE,11.5,17.3,N/A,,Clear,140,2013-05-07 20:55:00
4:15 PM,80.8,45.7,29,29.99,10.0,South,9.2,-,N/A,,Clear,180,2013-05-07 21:15:00
4:35 PM,80.2,44.1,28,29.98,10.0,SSE,8.1,-,N/A,,Clear,150,2013-05-07 21:35:00
4:55 PM,82.0,45.5,28,29.97,10.0,South,12.7,-,N/A,,Clear,190,2013-05-07 21:55:00
5:15 PM,81.7,44.6,27,29.97,10.0,South,10.4,17.3,N/A,,Clear,170,2013-05-07 22:15:00
5:35 PM,81.5,43.9,26,29.97,10.0,SSE,11.5,-,N/A,,Clear,160,2013-05-07 22:35:00
5:55 PM,81.1,44.4,27,29.96,10.0,SSE,10.4,17.3,N/A,,Clear,150,2013-05-07 22:55:00
6:15 PM,80.2,45.0,29,29.96,10.0,SSE,6.9,-,N/A,,Scattered Clouds,150,2013-05-07 23:15:00
6:35 PM,79.5,44.8,29,29.96,10.0,SSE,9.2,-,N/A,,Scattered Clouds,160,2013-05-07 23:35:00
6:55 PM,80.2,46.6,31,29.97,10.0,SE,8.1,-,N/A,,Mostly Cloudy,130,2013-05-07 23:55:00
7:15 PM,77.4,47.3,35,29.97,10.0,South,11.5,-,N/A,,Scattered Clouds,170,2013-05-08 00:15:00
7:35 PM,76.3,46.8,35,29.97,10.0,SSE,5.8,-,N/A,,Scattered Clouds,160,2013-05-08 00:35:00
7:55 PM,74.8,46.9,37,29.97,10.0,SSE,5.8,-,N/A,,Clear,150,2013-05-08 00:55:00
8:15 PM,73.4,47.3,39,29.97,10.0,SE,4.6,-,N/A,,Clear,140,2013-05-08 01:15:00
8:35 PM,72.5,47.8,42,29.98,10.0,SE,3.5,-,N/A,,Clear,140,2013-05-08 01:35:00
8:55 PM,71.1,48.2,44,29.98,10.0,Calm,Calm,-,N/A,,Clear,0,2013-05-08 01:55:00
9:15 PM,70.5,48.6,46,29.98,10.0,Calm,Calm,-,N/A,,Clear,0,2013-05-08 02:15:00
9:35 PM,69.8,49.1,48,29.98,10.0,SE,3.5,-,N/A,,Clear,130,2013-05-08 02:35:00
9:55 PM,69.3,49.1,49,29.98,10.0,SE,3.5,-,N/A,,Clear,140,2013-05-08 02:55:00
10:15 PM,68.9,49.1,49,29.99,10.0,SE,3.5,-,N/A,,Clear,130,2013-05-08 03:15:00
10:35 PM,68.4,49.1,50,29.99,10.0,SE,5.8,-,N/A,,Clear,130,2013-05-08 03:35:00
10:55 PM,68.0,49.1,51,29.99,10.0,SE,4.6,-,N/A,,Clear,130,2013-05-08 03:55:00
11:15 PM,67.8,48.7,50,29.99,10.0,SE,4.6,-,N/A,,Clear,140,2013-05-08 04:15:00
11:35 PM,68.0,49.1,51,29.99,10.0,SSE,4.6,-,N/A,,Clear,150,2013-05-08 04:35:00
11:55 PM,67.6,49.5,52,30.00,10.0,SSE,4.6,-,N/A,,Clear,150,2013-05-08 04:55:00